THURAYA-3 (32404 NORAD) Tracking and Keplerian Element Data

This shows tracking and keplerian element data for the satellite.

Feedback or suggestion? Click here.




ElementValue
Catalog32404
NameTHURAYA-3
Epoch Orbit4609
Epoch Day222.90955291
Epoch Year2020
RAAN10.8948
Inclination3.7694
Eccentricity0.0004104
Argument of Perigee109.8596
Mean Anonmoly264.0346
Mean Motion1.00272132
Decay Rate-3.04E-06
L11 32404U 08001A 20222.90955291 -.00000304 00000-0 00000-0 0 9998
L22 32404 3.7694 10.8948 0004104 109.8596 264.0346 1.00272132 46093

Live tracking and technical data element details for THURAYA-3 (NORAD 32404). THURAYA-3 can be tracked NOW for your location showing map with azimuth and elevation plus other details from your city location.

Track the satellite on the map from your city or location and see movement details for azimuth, elevation, latitude, longitude, range, height, and movement on the map or in text.







IsCatalogInMostPopularTable: catalog: 32404, numindb: 764
Update: records affected: 1



GetName: 32404 THURAYA-3

Hit Count: updated at: Mon, 10 Aug 2020 22:37:16 GMT